Regional Weather Roundup
Issued by NWS Glasgow, MT

Home | Current Version | Previous Version | Text Only | Print | Product List | Glossary On
Versions: 1 2 3 4 5 6 7 8 9 10 11 12 13 14 15 16 17 18 19 20 21 22 23 24 25 26 27 28
000
ASUS45 KGGW 270115
RWRGGW
HOURLY REGIONAL WEATHER ROUNDUP FOR NORTHEAST MONTANA
NATIONAL WEATHER SERVICE GLASGOW MONTANA
700 PM MDT FRI AUG 26 2016

NOTE: "FAIR" INDICATES FEW OR NO CLOUDS BELOW 12,000 FEET WITH NO
SIGNIFICANT WEATHER AND/OR OBSTRUCTIONS TO VISISBILITY.

NORTHEAST MONTANA


CITY           SKY/WX    TMP DP  RH WIND       PRES   REMARKS
GLASGOW        CLEAR     67  43  41 W10       29.94S
PLENTYWOOD       N/A     63  47  55 NW9G26      N/A
WOLF POINT     CLOUDY    68  49  50 SW6       29.94F
JORDAN           N/A     69  43  38 NW6       29.96F
WINNETT          N/A     69  39  33 NW3G12      N/A
SIDNEY         NOT AVBL
GLENDIVE       PTCLDY    63  44  50 NW22      29.96R
MALTA            N/A     71  50  47 S3          N/A
SCOBEY           N/A     64  44  48 NW7       29.94S

FORT PECK REPORTS


CITY           SKY/WX    TMP DP  RH WIND       PRES   REMARKS
FORT PECK        N/A     69  44  40 NW10        N/A
THE PINES        N/A     69  42  37 W2          N/A

SOUTHEAST MONTANA


CITY           SKY/WX    TMP DP  RH WIND       PRES   REMARKS
BILLINGS       PTCLDY    71  38  29 NE9       29.96F
MILES CITY     MOCLDY    68  42  38 N15       29.96R
BAKER          PTCLDY    60  48  64 SE12      29.99R
LIVINGSTON     CLOUDY    73  30  20 NW7       29.97F

CENTRAL MONTANA


CITY           SKY/WX    TMP DP  RH WIND       PRES   REMARKS
HAVRE          SUNNY     71  40  32 VRB7      29.92F
LEWISTOWN      PTSUNNY   67  41  38 NW5       30.00F
GREAT FALLS    SUNNY     70  38  31 E7        29.95F
CUT BANK       MOSUNNY   69  36  29 CALM      29.93F
HELENA         MOSUNNY   74  35  24 SE3       29.95F
BUTTE          CLOUDY    69  30  23 N10       30.04S
BOZEMAN        CLOUDY    71  37  28 N6        29.98F

WESTERN MONTANA


CITY           SKY/WX    TMP DP  RH WIND       PRES   REMARKS
MISSOULA       FAIR      78  36  21 N5        29.92F
KALISPELL      NOT AVBL

NORTH DAKOTA


CITY           SKY/WX    TMP DP  RH WIND       PRES   REMARKS
WILLISTON      MOCLDY    69  44  40 NW10      29.92S
DICKINSON      CLOUDY    64  43  46 SW6       29.97R
MINOT          CLEAR     67  49  52 S15G23    29.92F
BISMARCK       PTCLDY    65  52  62 S14       30.00S

SOUTHERN SASKATCHEWAN


CITY           SKY/WX    TMP DP  RH WIND       PRES   REMARKS
REGINA         MOCLDY    61  54  77 NW5       29.90R
ESTEVAN        LGT RAIN  63  50  63 W13G20    29.90S
SWIFT CURRENT  CLEAR     63  43  48 NW7       29.91F





USA.gov is the U.S. government's official web portal to all federal, state and local government web resources and services.